Location: Roanoke
(37.2710°N, 79.9420°W)
Time: 15:47:21
(UTC-05:00)

Transit 2A - Pass Details

Date: 28 November 2019
Orbit: 602 x 957 km, 66.7° (Epoch: 12 December)

Event Time Altitude Azimuth Distance (km) Brightness Sun altitude
Rises 18:57:17 0° 335° (NNW) 2,862 9.2 -22.3°
Reaches altitude 10° 18:59:31 10° 339° (NNW) 1,969 8.2 -22.7°
Enters shadow 19:02:37 43° 2° (N) 884 6.2 -23.4°
Maximum altitude 19:03:52 61° 61° (ENE) 716 - -23.6°
Drops below altitude 10° 19:08:29 10° 142° (SE) 2,084 - -24.5°
Sets 19:10:54 0° 145° (SE) 3,045 - -25.0°
